Cloverdale, Indiana, United States (46120)
Lat: 39.51N, Lon: 86.79W
Wx Zone: INZ045
Local Info
Past Weather Observations for Friday, September 19, 2014

NOTE: This archive is for the closest National Weather Service station to Cloverdale. Information may differ from the station used for current weather conditions.

Click here for Long-term Archive

Time Weather Temperature Dewpoint Humidity Pressure Winds Precip Visibility
23:53
Clear
54°F / 12°C 52°F / 11°C 94% 30.06 in
(1018 mb)
Calm - 9SM
23:38
Clear
Fog And Mist
54°F / 12°C 52°F / 11°C 94% 30.06 in
(1018 mb)
Calm - 4SM
23:29
Clear
Fog And Mist
52°F / 11°C 52°F / 11°C 100% 30.06 in
(1018 mb)
Calm - 2SM
22:53
Clear
Fog And Mist
54°F / 12°C 52°F / 11°C 94% 30.06 in
(1018 mb)
Calm - 3SM
21:53
Clear
Fog And Mist
54°F / 12°C 52°F / 11°C 94% 30.06 in
(1018 mb)
Calm - 4SM
20:53
Clear
55°F / 13°C 54°F / 12°C 94% 30.06 in
(1018 mb)
Calm - 7SM
19:53
Clear
55°F / 13°C 54°F / 12°C 94% 30.06 in
(1018 mb)
Calm - 9SM
18:53
Clear
61°F / 16°C 55°F / 13°C 83% 30.06 in
(1018 mb)
Calm - 10SM
17:53
Clear
72°F / 22°C 52°F / 11°C 50% 30.06 in
(1018 mb)
SE 3.5 mph
(SE 6 kph)
- 10SM
16:53
Clear
73°F / 23°C 50°F / 10°C 44% 30.06 in
(1018 mb)
SSE 5.8 mph
(SSE 9 kph)
- 10SM
15:53
Clear
73°F / 23°C 48°F / 9°C 41% 30.09 in
(1019 mb)
SE 6.9 mph
(SE 11 kph)
- 10SM
14:53
Clear
73°F / 23°C 46°F / 8°C 38% 30.09 in
(1019 mb)
ESE 9.2 mph
(ESE 15 kph)
- 10SM
13:53
Clear
72°F / 22°C 48°F / 9°C 44% 30.12 in
(1020 mb)
SE 8.1 mph
(SE 13 kph)
- 10SM
12:53
Clear
72°F / 22°C 52°F / 11°C 50% 30.15 in
(1021 mb)
ESE 9.2 mph
(ESE 15 kph)
- 10SM
11:53
Clear
70°F / 21°C 50°F / 10°C 50% 30.15 in
(1021 mb)
SE 10.4 mph
(SE 17 kph)
- 10SM
10:53
Clear
68°F / 20°C 48°F / 9°C 49% 30.18 in
(1022 mb)
SE 11.5 mph
(SE 19 kph)
- 10SM
09:53
Clear
64°F / 18°C 48°F / 9°C 56% 30.18 in
(1022 mb)
SE 9.2 mph
(SE 15 kph)
- 10SM
08:53
Clear
61°F / 16°C 50°F / 10°C 68% 30.18 in
(1022 mb)
SE 10.4 mph
(SE 17 kph)
- 10SM
07:53
Clear
55°F / 13°C 48°F / 9°C 77% 30.18 in
(1022 mb)
Calm - 10SM
06:53
Clear
46°F / 8°C 45°F / 7°C 93% 30.15 in
(1021 mb)
Calm - 10SM
05:53
Clear
46°F / 8°C 45°F / 7°C 93% 30.15 in
(1021 mb)
Calm - 8SM
04:53
Clear
Fog And Mist
46°F / 8°C 45°F / 7°C 93% 30.15 in
(1021 mb)
Calm - 5SM
03:53
Clear
46°F / 8°C 45°F / 7°C 93% 30.12 in
(1020 mb)
SSE 3.5 mph
(SSE 6 kph)
- 10SM
02:53
Clear
Fog And Mist
46°F / 8°C 45°F / 7°C 93% 30.12 in
(1020 mb)
Calm - 5SM
02:45
Clear
Fog And Mist
48°F / 9°C 46°F / 8°C 94% 30.12 in
(1020 mb)
Calm - 2 1/2SM
01:53
Clear
Fog And Mist
46°F / 8°C 46°F / 8°C 100% 30.15 in
(1021 mb)
Calm - 5SM
01:51
Clear
Fog And Mist
46°F / 8°C 46°F / 8°C 100% 30.15 in
(1021 mb)
Calm - 3SM
01:40
Clear
Fog And Mist
48°F / 9°C 46°F / 8°C 94% 30.15 in
(1021 mb)
Calm - 1 3/4SM
00:53
Clear
46°F / 8°C 46°F / 8°C 100% 30.12 in
(1020 mb)
Calm - 7SM
00:35
Clear
Fog And Mist
48°F / 9°C 48°F / 9°C 100% 30.12 in
(1020 mb)
Calm - 3SM
00:26
Clear
Fog And Mist
48°F / 9°C 46°F / 8°C 94% 30.12 in
(1020 mb)
Calm - 1 3/4SM
Time Weather Temperature Dewpoint Humidity Pressure Winds Precip Visibility


Weather for websites

WeatherForYou.com, LLC is not responsible for any damages or problems caused by this service. Current weather conditions are obtained from the closest station including government and personal stations which may have varying degrees of accuracy. Weather forecasts are derived from the NOAA NDFD. Like all things, this site belongs to Jesus Christ... He just trusts me to maintain it. If you have any questions or comments email webmaster@weatherforyou.com

Copyright © 2014, WeatherForYou.com LLC. All rights reserved.